Zadar, Croatia

10:21 PM CEST on June 22, 2018 (GMT +0200)
Zemunik

Weather History for LDZD - March, 2018

Change the Weather History Date:

Tuesday, March 13, 2018

  Actual Average Record
Temperature  
Mean Temperature 50 °F -  
Max Temperature 57 °F - - ()
Min Temperature 43 °F - - ()
Degree Days  
Heating Degree Days 15    
Moisture  
Dew Point 47 °F    
Average Humidity 90    
Maximum Humidity 100    
Minimum Humidity 63    
Precipitation  
Precipitation 0.39 in - - ()
Sea Level Pressure  
Sea Level Pressure 29.76 in    
Wind  
Wind Speed 5 mph ()    
Max Wind Speed 8 mph    
Max Gust Speed -    
Visibility 7.2 miles    
Events Rain , Thunderstorm    
T = Trace of Precipitation, MM = Missing Value Source: Averaged Metar Reports

Daily Weather History Graph

Daily Weather History Graph

Search for Another Location

Airport or City:

Astronomy

Mar. 13, 2018 Rise Set
Actual Time 6:14 AM CET 6:01 PM CET
Civil Twilight 5:46 AM CET 6:30 PM CET
Nautical Twilight 5:12 AM CET 7:04 PM CET
Astronomical Twilight 4:38 AM CET 7:38 PM CET
Moon 4:08 AM CET (3/13) 1:58 PM CET (3/13)
Length of Visible Light 12h 44m
Length of Day
11h 47m
Waning Crescent, 16% of the Moon is Illuminated
Mar 13
Waning Crescent
Mar 17
New
Mar 24
First Quarter
Mar 31
Full
Apr 8
Last Quarter

Hourly Weather History & Observations

Time (CET) Temp. Windchill Dew Point Humidity Pressure Visibility Wind Dir Wind Speed Gust Speed Precip Events Conditions
12:00 AM 44.6 °F 41.4 °F 42.8 °F 93% 29.71 in 6.2 mi ESE 5.8 mph - N/A   Partly Cloudy
12:30 AM 44.6 °F 42.2 °F 42.8 °F 93% 29.71 in 6.2 mi ESE 4.6 mph - N/A   Scattered Clouds
1:00 AM 45 °F - 44 °F 94% 29.72 in 12 mi SE 6.7 mph - -   Scattered Clouds
1:00 AM 44.6 °F 41.4 °F 44.6 °F 100% 29.71 in 6.2 mi SE 5.8 mph - N/A   Scattered Clouds
1:30 AM 46.4 °F 43.5 °F 44.6 °F 93% 29.71 in 6.2 mi SE 5.8 mph - N/A   Scattered Clouds
2:00 AM 46.4 °F 43.5 °F 44.6 °F 93% 29.71 in 6.2 mi SE 5.8 mph - N/A   Scattered Clouds
2:30 AM 48.2 °F - 44.6 °F 87% 29.68 in 6.2 mi SE 5.8 mph - N/A   Scattered Clouds
3:00 AM 48.2 °F - 46.4 °F 93% 29.68 in 6.2 mi ESE 4.6 mph - N/A   Mostly Cloudy
3:30 AM 48.2 °F - 46.4 °F 93% 29.68 in 6.2 mi SSE 4.6 mph - N/A   Mostly Cloudy
4:00 AM 48 °F - 46 °F 92% 29.71 in 19 mi ESE 4.5 mph - -   Partly Cloudy
4:00 AM 48.2 °F - 46.4 °F 93% 29.68 in 6.2 mi ESE 5.8 mph - N/A   Mostly Cloudy
4:30 AM 48.2 °F - 46.4 °F 93% 29.68 in 6.2 mi SE 5.8 mph - N/A   Mostly Cloudy
5:00 AM 48.2 °F - 46.4 °F 93% 29.71 in 6.2 mi ESE 4.6 mph - N/A Rain Light Rain
5:30 AM 48.2 °F - 46.4 °F 93% 29.71 in 6.2 mi SSE 4.6 mph - N/A Rain Light Rain
6:00 AM 48.2 °F - 48.2 °F 100% 29.71 in 6.2 mi SE 3.5 mph - N/A Rain Light Rain
6:30 AM 48.2 °F - 48.2 °F 100% 29.71 in 6.2 mi SE 5.8 mph - N/A   Mostly Cloudy
7:00 AM 49 °F - 49 °F 98% 29.73 in 12 mi SE 4.5 mph - - Rain Light Rain
7:00 AM 50.0 °F - 48.2 °F 94% 29.71 in 6.2 mi SE 4.6 mph - N/A   Mostly Cloudy
7:30 AM 51.8 °F - 50.0 °F 94% 29.71 in 6.2 mi South 3.5 mph - N/A   Scattered Clouds
8:00 AM 51.8 °F - 50.0 °F 94% 29.74 in 6.2 mi SW 5.8 mph - N/A   Mostly Cloudy
8:30 AM 51.8 °F - 48.2 °F 88% 29.74 in 6.2 mi SSW 6.9 mph - N/A   Mostly Cloudy
9:00 AM 51.8 °F - 48.2 °F 88% 29.74 in 6.2 mi West 5.8 mph - N/A Rain Light Rain
9:30 AM 50.0 °F - 48.2 °F 94% 29.77 in 6.2 mi Variable 2.3 mph - N/A Rain Light Rain
10:00 AM 51 °F - 49 °F 89% 29.79 in 5 mi West 2.2 mph - - Rain Light Rain
10:00 AM 50.0 °F - 48.2 °F 94% 29.77 in 5.0 mi Variable 2.3 mph - N/A Rain Light Rain
10:30 AM 50.0 °F - 48.2 °F 94% 29.77 in 3.7 mi WNW 3.5 mph - N/A Rain Rain
11:00 AM 50.0 °F - 48.2 °F 94% 29.77 in 5.0 mi Variable 2.3 mph - N/A Rain Light Rain
11:30 AM 50.0 °F - 50.0 °F 100% 29.77 in 6.2 mi NNE 4.6 mph - N/A Rain Light Rain
12:00 PM 50.0 °F - 48.2 °F 94% 29.77 in 6.2 mi North 8.1 mph - N/A Rain Light Rain
12:30 PM 50.0 °F - 48.2 °F 94% 29.77 in 5.0 mi NNE 6.9 mph - N/A Rain Light Rain
1:00 PM 53 °F - 50 °F 87% 29.79 in 19 mi NNE 4.5 mph - - Rain Light Rain
1:00 PM 51.8 °F - 50.0 °F 94% 29.77 in 6.2 mi NNE 4.6 mph - N/A   Mostly Cloudy
1:30 PM 53.6 °F - 50.0 °F 88% 29.77 in 6.2 mi NE 6.9 mph - N/A   Mostly Cloudy
2:00 PM 55.4 °F - 48.2 °F 77% 29.77 in 6.2 mi ENE 8.1 mph - N/A   Scattered Clouds
2:30 PM 57.2 °F - 48.2 °F 72% 29.77 in 6.2 mi ENE 6.9 mph - N/A   Scattered Clouds
3:00 PM 55.4 °F - 46.4 °F 72% 29.77 in 6.2 mi Variable 3.5 mph - N/A   Mostly Cloudy
3:30 PM 55.4 °F - 46.4 °F 72% 29.77 in 6.2 mi NNE 4.6 mph - N/A   Mostly Cloudy
4:00 PM 56 °F - 47 °F 63% 29.78 in 19 mi ENE 4.5 mph - - Thunderstorm Light Thunderstorm
4:00 PM 57.2 °F - 46.4 °F 67% 29.77 in 6.2 mi NE 3.5 mph - N/A   Mostly Cloudy
4:30 PM 53.6 °F - 46.4 °F 77% 29.77 in 6.2 mi North 8.1 mph - N/A Rain Light Rain
5:00 PM 53.6 °F - 46.4 °F 77% 29.77 in 6.2 mi North 5.8 mph - N/A   Mostly Cloudy
5:30 PM 51.8 °F - 46.4 °F 82% 29.80 in 6.2 mi North 4.6 mph - N/A   Mostly Cloudy
6:00 PM 51.8 °F - 48.2 °F 88% 29.80 in 6.2 mi SE 3.5 mph - N/A   Scattered Clouds
6:30 PM 50.0 °F - 48.2 °F 94% 29.80 in 6.2 mi SE 4.6 mph - N/A   Scattered Clouds
7:00 PM 50 °F - 48 °F 89% 29.83 in 16 mi SE 4.5 mph - -   Partly Cloudy
7:00 PM 50.0 °F - 48.2 °F 94% 29.80 in 6.2 mi SE 4.6 mph - N/A   Partly Cloudy
7:30 PM 50.0 °F - 48.2 °F 94% 29.83 in 6.2 mi SSE 4.6 mph - N/A   Partly Cloudy
8:00 PM 50.0 °F - 48.2 °F 94% 29.83 in 6.2 mi ESE 4.6 mph - N/A   Partly Cloudy
8:30 PM 48.2 °F - 48.2 °F 100% 29.83 in 6.2 mi SE 4.6 mph - N/A   Partly Cloudy
9:00 PM 48.2 °F - 46.4 °F 93% 29.83 in 6.2 mi ESE 4.6 mph - N/A   Partly Cloudy
9:30 PM 48.2 °F - 46.4 °F 93% 29.83 in 6.2 mi NE 4.6 mph - N/A   Partly Cloudy
10:00 PM 48 °F - 46 °F 91% 29.85 in 12 mi East 6.7 mph - -   Mostly Cloudy
10:00 PM 48.2 °F - 46.4 °F 93% 29.83 in 6.2 mi East 5.8 mph - N/A   Scattered Clouds
10:30 PM 48.2 °F - 46.4 °F 93% 29.83 in 6.2 mi ESE 4.6 mph - N/A   Scattered Clouds
11:00 PM 48.2 °F - 46.4 °F 93% 29.83 in 6.2 mi ESE 5.8 mph - N/A Rain Light Rain
11:30 PM 46.4 °F 43.5 °F 44.6 °F 93% 29.83 in 6.2 mi SE 5.8 mph - N/A   Scattered Clouds